Location: Newark
(52.5694°N, 1.3190°W)
Time: 13:36:59
(UTC+00:00)

N. Korean satellite - Pass Details

Date: 02 February 2020
Orbit: 456 x 505 km, 97.2° (Epoch: 24 February)

Event Time Altitude Azimuth Distance (km) Brightness Sun altitude
Rises 06:57:06 0° 4° (N) 2,563 10.1 -7.8°
Reaches altitude 10° 06:59:21 10° 352° (N) 1,687 9.1 -7.4°
Maximum altitude 07:02:27 27° 294° (WNW) 983 7.5 -7.0°
Drops below altitude 10° 07:05:33 10° 236° (SW) 1,697 9.0 -6.5°
Sets 07:07:51 0° 224° (SW) 2,583 10.0 -6.2°
